Time,TemperatureF,DewpointF,PressureIn,WindDirection,WindDirectionDegrees,WindSpeedMPH,WindSpeedGustMPH,Humidity,HourlyPrecipIn,Conditions,Clouds,dailyrainin,SoftwareType,DateUTC
2013-10-09 00:13:00,62.0,46.0,-100.00,North,-999,-999.0,-999.0,54,-99.99,,,-99.99,,2013-10-09 05:13:00,
2013-10-09 00:22:00,62.0,46.0,-100.00,North,-999,-999.0,-999.0,54,-99.99,,,-99.99,,2013-10-09 05:22:00,
2013-10-09 00:52:00,61.0,46.0,-100.00,North,-999,-999.0,-999.0,57,0.00,,,0.00,,2013-10-09 05:52:00,
2013-10-09 01:02:00,61.0,46.0,-100.00,North,-999,-999.0,-999.0,57,0.00,,,0.00,,2013-10-09 06:02:00,
2013-10-09 01:22:00,61.0,46.0,-100.00,North,-999,-999.0,-999.0,57,-99.99,,,0.00,,2013-10-09 06:22:00,
2013-10-09 01:42:00,61.0,46.0,-100.00,North,-999,-999.0,-999.0,58,0.00,,,0.00,,2013-10-09 06:42:00,
2013-10-09 01:52:00,61.0,46.0,-100.00,North,-999,-999.0,-999.0,58,0.00,,,0.00,,2013-10-09 06:52:00,
2013-10-09 02:22:00,59.0,46.0,-100.00,North,-999,-999.0,-999.0,62,0.00,,,0.00,,2013-10-09 07:22:00,
2013-10-09 02:42:00,60.0,46.0,-100.00,North,-999,-999.0,-999.0,58,0.00,,,0.00,,2013-10-09 07:42:00,
2013-10-09 02:52:00,60.0,46.0,-100.00,North,-999,-999.0,-999.0,58,0.00,,,0.00,,2013-10-09 07:52:00,
2013-10-09 03:23:00,62.0,45.0,-100.00,North,-999,-999.0,-999.0,54,0.00,,,0.00,,2013-10-09 08:23:00,
2013-10-09 03:53:00,61.0,46.0,-100.00,North,-999,-999.0,-999.0,58,0.00,,,0.00,,2013-10-09 08:53:00,
2013-10-09 04:22:00,60.0,47.0,-100.00,North,-999,-999.0,-999.0,63,0.00,,,0.00,,2013-10-09 09:22:00,
2013-10-09 04:53:00,59.0,48.0,-100.00,North,-999,-999.0,-999.0,67,0.00,,,0.00,,2013-10-09 09:53:00,
2013-10-09 05:23:00,58.0,50.0,-100.00,North,-999,-999.0,-999.0,73,0.00,,,0.00,,2013-10-09 10:23:00,
2013-10-09 05:43:00,58.0,49.0,-100.00,North,-999,-999.0,-999.0,74,0.00,,,0.00,,2013-10-09 10:43:00,
2013-10-09 05:53:00,58.0,49.0,-100.00,North,-999,-999.0,-999.0,74,0.00,,,0.00,,2013-10-09 10:53:00,
2013-10-09 06:22:00,54.0,49.0,-100.00,North,-999,-999.0,-999.0,81,0.00,,,0.00,,2013-10-09 11:22:00,
2013-10-09 06:52:00,52.0,49.0,-100.00,North,-999,-999.0,-999.0,88,-99.99,,,0.00,,2013-10-09 11:52:00,
2013-10-09 07:21:00,53.0,50.0,-100.00,North,-999,-999.0,-999.0,88,0.00,,,0.00,,2013-10-09 12:21:00,
2013-10-09 07:42:00,53.0,50.0,-100.00,North,-999,-999.0,-999.0,87,0.00,,,0.00,,2013-10-09 12:42:00,
2013-10-09 07:52:00,53.0,50.0,-100.00,North,-999,-999.0,-999.0,87,0.00,,,0.00,,2013-10-09 12:52:00,
2013-10-09 08:02:00,53.0,50.0,-100.00,North,-999,-999.0,-999.0,87,0.00,,,0.00,,2013-10-09 13:02:00,
2013-10-09 08:22:00,51.0,49.0,-100.00,North,-999,-999.0,-999.0,93,0.00,,,0.00,,2013-10-09 13:22:00,
2013-10-09 08:33:00,51.0,49.0,-100.00,North,-999,-999.0,-999.0,93,0.00,,,0.00,,2013-10-09 13:33:00,
2013-10-09 08:52:00,58.0,54.0,-100.00,North,-999,-999.0,-999.0,86,-99.99,,,0.00,,2013-10-09 13:52:00,
2013-10-09 09:02:00,58.0,54.0,-100.00,North,-999,-999.0,-999.0,86,-99.99,,,0.00,,2013-10-09 14:02:00,
2013-10-09 09:22:00,63.0,57.0,-100.00,North,-999,-999.0,-999.0,82,0.00,,,0.00,,2013-10-09 14:22:00,
2013-10-09 09:32:00,63.0,57.0,-100.00,North,-999,-999.0,-999.0,82,0.00,,,0.00,,2013-10-09 14:32:00,
2013-10-09 09:52:00,65.0,58.0,-100.00,North,-999,-999.0,-999.0,78,0.00,,,0.00,,2013-10-09 14:52:00,
2013-10-09 10:11:00,66.0,58.0,-100.00,North,-999,-999.0,-999.0,76,-99.99,,,0.00,,2013-10-09 15:11:00,
2013-10-09 10:22:00,66.0,58.0,-100.00,North,-999,-999.0,-999.0,76,-99.99,,,0.00,,2013-10-09 15:22:00,
2013-10-09 10:43:00,68.0,59.0,-100.00,North,-999,-999.0,-999.0,73,0.00,,,0.00,,2013-10-09 15:43:00,
2013-10-09 10:53:00,68.0,59.0,-100.00,North,-999,-999.0,-999.0,73,0.00,,,0.00,,2013-10-09 15:53:00,
2013-10-09 11:24:00,70.0,57.0,-100.00,North,-999,-999.0,-999.0,63,-99.99,,,0.00,,2013-10-09 16:24:00,
2013-10-09 11:52:00,71.0,56.0,-100.00,North,-999,-999.0,-999.0,59,0.00,,,0.00,,2013-10-09 16:52:00,
2013-10-09 12:22:00,72.0,57.0,-100.00,North,-999,-999.0,-999.0,58,0.00,,,0.00,,2013-10-09 17:22:00,
2013-10-09 12:42:00,73.0,56.0,-100.00,North,-999,-999.0,-999.0,56,0.00,,,0.00,,2013-10-09 17:42:00,
2013-10-09 12:52:00,73.0,56.0,-100.00,North,-999,-999.0,-999.0,56,0.00,,,0.00,,2013-10-09 17:52:00,
2013-10-09 13:02:00,73.0,56.0,-100.00,North,-999,-999.0,-999.0,56,0.00,,,0.00,,2013-10-09 18:02:00,
2013-10-09 13:22:00,75.0,56.0,-100.00,North,-999,-999.0,-999.0,51,0.00,,,-99.99,,2013-10-09 18:22:00,
2013-10-09 13:52:00,77.0,55.0,-100.00,North,-999,-999.0,-999.0,47,-99.99,,,0.00,,2013-10-09 18:52:00,
2013-10-09 14:22:00,78.0,54.0,-100.00,North,-999,-999.0,-999.0,44,0.00,,,0.00,,2013-10-09 19:22:00,
2013-10-09 14:52:00,78.0,52.0,-100.00,North,-999,-999.0,-999.0,40,0.00,,,0.00,,2013-10-09 19:52:00,
2013-10-09 15:22:00,79.0,53.0,-100.00,North,-999,-999.0,-999.0,41,0.00,,,0.00,,2013-10-09 20:22:00,
2013-10-09 15:43:00,79.0,54.0,-100.00,North,-999,-999.0,-999.0,42,0.00,,,0.00,,2013-10-09 20:43:00,
2013-10-09 15:52:00,79.0,54.0,-100.00,North,-999,-999.0,-999.0,42,0.00,,,0.00,,2013-10-09 20:52:00,
2013-10-09 16:22:00,79.0,53.0,-100.00,North,-999,-999.0,-999.0,40,0.00,,,0.00,,2013-10-09 21:22:00,
2013-10-09 16:34:00,79.0,53.0,-100.00,North,-999,-999.0,-999.0,40,0.00,,,0.00,,2013-10-09 21:34:00,
2013-10-09 16:53:00,79.0,53.0,-100.00,North,-999,-999.0,-999.0,41,0.00,,,0.00,,2013-10-09 21:53:00,
2013-10-09 17:24:00,79.0,53.0,-100.00,North,-999,-999.0,-999.0,41,0.00,,,0.00,,2013-10-09 22:24:00,
2013-10-09 17:53:00,79.0,53.0,-100.00,North,-999,-999.0,-999.0,41,0.00,,,0.00,,2013-10-09 22:53:00,
2013-10-09 18:22:00,78.0,54.0,-100.00,North,-999,-999.0,-999.0,44,0.00,,,0.00,,2013-10-09 23:22:00,
2013-10-09 18:42:00,77.0,55.0,-100.00,North,-999,-999.0,-999.0,46,0.00,,,0.00,,2013-10-09 23:42:00,
2013-10-09 18:53:00,77.0,55.0,-100.00,North,-999,-999.0,-999.0,46,0.00,,,0.00,,2013-10-09 23:53:00,
2013-10-09 19:02:00,77.0,55.0,-100.00,North,-999,-999.0,-999.0,46,0.00,,,0.00,,2013-10-10 00:02:00,
2013-10-09 19:11:00,73.0,55.0,-100.00,North,-999,-999.0,-999.0,52,0.00,,,0.00,,2013-10-10 00:11:00,
2013-10-09 19:22:00,75.0,55.0,-100.00,North,-999,-999.0,-999.0,50,0.00,,,0.00,,2013-10-10 00:22:00,
2013-10-09 19:42:00,73.0,55.0,-100.00,North,-999,-999.0,-999.0,52,0.00,,,0.00,,2013-10-10 00:42:00,
2013-10-09 19:52:00,73.0,55.0,-100.00,North,-999,-999.0,-999.0,52,0.00,,,0.00,,2013-10-10 00:52:00,
2013-10-09 20:01:00,73.0,55.0,-100.00,North,-999,-999.0,-999.0,52,0.00,,,0.00,,2013-10-10 01:01:00,
2013-10-09 21:12:00,68.0,54.0,-100.00,North,-999,-999.0,-999.0,60,-99.99,,,0.00,,2013-10-10 02:12:00,
2013-10-09 21:22:00,68.0,54.0,-100.00,North,-999,-999.0,-999.0,60,-99.99,,,0.00,,2013-10-10 02:22:00,
2013-10-09 21:52:00,67.0,54.0,-100.00,North,-999,-999.0,-999.0,62,0.00,,,0.00,,2013-10-10 02:52:00,
2013-10-09 22:22:00,67.0,54.0,-100.00,North,-999,-999.0,-999.0,64,-99.99,,,0.00,,2013-10-10 03:22:00,
2013-10-09 22:34:00,67.0,54.0,-100.00,North,-999,-999.0,-999.0,64,-99.99,,,0.00,,2013-10-10 03:34:00,
2013-10-09 22:54:00,67.0,55.0,-100.00,North,-999,-999.0,-999.0,65,-99.99,,,0.00,,2013-10-10 03:54:00,
2013-10-09 23:24:00,66.0,55.0,-100.00,North,-999,-999.0,-999.0,66,0.00,,,0.00,,2013-10-10 04:24:00,
2013-10-09 23:53:00,65.0,55.0,-100.00,North,-999,-999.0,-999.0,69,0.00,,,0.00,,2013-10-10 04:53:00,